OBJECT AU, 60510

Orbit data source: Space-Track

You're viewing an Uncataloged Satellite

Recently launched and/or uncataloged satellites may have evolving metadata. Metadata may include but not limited to: Owner, Maufacturer, Bus, Motor, and Mission.

OBJECT AU, 60510 is a satellite in SSO that was launched on Fri, 16 Aug 2024 UTC via an FALCON 9 launch vehicle from the Air Force Western Test Range (AFWTR). Unknown objects in Earth's orbit typically refer to objects detected orbiting the Earth but have not yet been identified or cataloged. These objects could be anything from previously untracked satellites, spent rocket stages, debris from satellite collisions, or even natural meteoroids temporarily captured by Earth's gravity.

Loading next visibility...
Identifier
60510, 2024-149AU
Orbit
SSO
Country
Flag of TBDTBD
Related business
None
Manufacturer
Unknown
Mission
Operational Civil Communications
Bus & Motor
Unknown
Mass
Unknown
Launch date (UTC)
2024-08-16 (2 years ago)
Launch vehicle
FALCON 9
Launch site
Air Force Western Test Range (AFWTR)
Object type
Unknown
Shape & HBR
Box, 0.2 m
Radar Cross Section
0.045 m², Small (<0.1 m²)

Expand to show TLE details & history
Last TLE update: 11 hours ago

TLE from 11 hours ago
0 OBJECT AU
1 60510U 24149AU  26127.17703512  .00012322  00000-0  31996-3 0  9997
2 60510  97.3726 210.6083 0004967  85.0920 275.0893 15.39101394 96003
Epoch: 2026-05-07T04:14Z
TLE epoch observation values (Epoch: 2026-05-07T04:14:55.834Z)
Latitude
0.00003°
Longitude
-78.15127°
Altitude
451.583 km
Speed
7.642 km/s
True Right ascension
14h 02m 25s
True Declination
0° 00' 00"
Sunlit
Object was in full shadow at epoch
Visualization orbit readout
Latitude
Unknown
Longitude
Unknown
Altitude
Unknown
Speed
Unknown
Apparent Right ascension
Unknown
Apparent Declination
Unknown
Sunlit
N/A
Visualization observer readout
Local Sidereal Time
23:28:46
Azimuth
Unknown
Elevation
Unknown
Doppler factor
Unknown
Orbital elements
Apogee altitude
449.094 km
Perigee altitude
442.315 km
Semi-major axis
6,823.841 km
Eccentricity
0.0005
Inclination
97.3726°
RAAN
210.6083°
Arg. of periapsis
85.092°
True anomaly
275.0326°
Mean anomaly
275.0893°
Eccentric anomaly
275.06095°
Mean motion
3.85035 °/min
Orbital period
93.5 mins
BSTAR
0.00031996
Loading maneuver chart data...
Computing Atmospheric mass density...
Loading historical data...
Loading historical data...
Loading historical data...
Loading historical data...
Loading historical data...
Loading historical data...
Loading historical data...

Documentation

Showing up to 5 results
|